Clermont County, Batavia, OH

5:42 AM EST on December 10, 2019 (GMT -0500)
Clermont County, Batavia

Weather History for KI69 - November, 2019

Change the Weather History Date:

Tuesday, November 19, 2019

  Actual Average (KLUK) Record (KLUK)
Temperature  
Mean Temperature 43 °F -  
Max Temperature 52 °F 55 °F 75 °F (1985)
Min Temperature 34 °F 37 °F 14 °F (2014)
Degree Days  
Heating Degree Days 22    
Moisture  
Dew Point 38 °F    
Average Humidity 84    
Maximum Humidity 99    
Minimum Humidity 56    
Precipitation  
Precipitation 0.00 in - - ()
Sea Level Pressure  
Sea Level Pressure 29.85 in    
Wind  
Wind Speed 4 mph (SW)    
Max Wind Speed 8 mph    
Max Gust Speed -    
Visibility 9 miles    
Events Rain    
Averages and records for this station are not official NWS values.
T = Trace of Precipitation, MM = Missing Value Source: NWS Daily Summary

Daily Weather History Graph

Daily Weather History Graph

Search for Another Location

Airport or City:

Astronomy

Nov. 19, 2019 Rise Set
Actual Time 7:24 AM EST 5:19 PM EST
Civil Twilight 6:55 AM EST 5:48 PM EST
Nautical Twilight 6:22 AM EST 6:21 PM EST
Astronomical Twilight 5:50 AM EST 6:53 PM EST
Moon No Moon Rise 1:34 PM EST (11/19)
Length of Visible Light 10h 53m
Length of Day
9h 55m
Waning Gibbous, 52% of the Moon is Illuminated
Nov 19
Waning Gibbous
Nov 19
Last Quarter
Nov 26
New
Dec 4
First Quarter
Dec 12
Full

Hourly Weather History & Observations

Time (EST) Temp. Windchill Dew Point Humidity Pressure Visibility Wind Dir Wind Speed Gust Speed Precip Events Conditions
12:15 AM 39.2 °F 34.2 °F 37.0 °F 92% 29.81 in 10.0 mi SW 6.9 mph - N/A   Overcast
12:36 AM 38.8 °F 34.6 °F 36.5 °F 91% 29.81 in 7.0 mi SW 5.8 mph - N/A   Overcast
12:55 AM 38.5 °F 34.1 °F 36.1 °F 91% 29.81 in 7.0 mi WSW 5.8 mph - N/A   Overcast
1:18 AM 38.3 °F 34.8 °F 36.5 °F 93% 29.80 in 7.0 mi WSW 4.6 mph - N/A   Overcast
1:36 AM 38.3 °F - 36.5 °F 93% 29.80 in 7.0 mi Calm Calm - N/A   Overcast
1:55 AM 38.3 °F 35.9 °F 36.3 °F 93% 29.80 in 10.0 mi WSW 3.5 mph - N/A   Overcast
2:15 AM 38.3 °F 34.8 °F 36.1 °F 92% 29.81 in 10.0 mi WSW 4.6 mph - N/A   Overcast
2:35 AM 38.5 °F 34.1 °F 36.1 °F 91% 29.81 in 10.0 mi WSW 5.8 mph - N/A   Overcast
2:58 AM 38.3 °F 34.8 °F 36.0 °F 91% 29.81 in 10.0 mi WSW 4.6 mph - N/A   Overcast
3:16 AM 38.5 °F 35.0 °F 36.0 °F 91% 29.81 in 10.0 mi WSW 4.6 mph - N/A   Overcast
3:35 AM 38.5 °F 35.0 °F 35.8 °F 90% 29.81 in 10.0 mi SW 4.6 mph - N/A   Overcast
3:55 AM 38.3 °F 35.9 °F 35.6 °F 90% 29.81 in 10.0 mi WSW 3.5 mph - N/A   Overcast
4:15 AM 38.3 °F 35.9 °F 35.8 °F 91% 29.81 in 10.0 mi SW 3.5 mph - N/A   Overcast
4:38 AM 37.9 °F - 35.6 °F 91% 29.81 in 10.0 mi Calm Calm - N/A   Overcast
5:15 AM 36.9 °F - 35.1 °F 93% 29.81 in 7.0 mi Calm Calm - N/A   Clear
5:35 AM 35.6 °F - 34.3 °F 95% 29.81 in 7.0 mi Calm Calm - N/A   Scattered Clouds
5:59 AM 35.1 °F - 34.0 °F 96% 29.81 in 5.0 mi Calm Calm - N/A   Mostly Cloudy
6:18 AM 35.1 °F - 34.0 °F 96% 29.80 in 7.0 mi Calm Calm - N/A   Overcast
6:36 AM 34.7 °F - 33.4 °F 95% 29.80 in 5.0 mi Calm Calm - N/A   Overcast
6:55 AM 35.6 °F 32.8 °F 34.7 °F 97% 29.81 in 7.0 mi ESE 3.5 mph - N/A   Overcast
7:15 AM 35.6 °F - 34.7 °F 97% 29.81 in 7.0 mi Calm Calm - N/A   Mostly Cloudy
7:39 AM 36.7 °F - 34.9 °F 93% 29.82 in 7.0 mi Calm Calm - N/A   Overcast
7:57 AM 36.7 °F - 35.6 °F 96% 29.82 in 5.0 mi Calm Calm - N/A   Overcast
8:16 AM 37.6 °F - 35.8 °F 93% 29.83 in 7.0 mi Calm Calm - N/A   Overcast
8:55 AM 40.3 °F 38.2 °F 35.8 °F 84% 29.83 in 10.0 mi ESE 3.5 mph - N/A   Mostly Cloudy
9:19 AM 41.7 °F 39.8 °F 35.8 °F 79% 29.84 in 10.0 mi SSW 3.5 mph - N/A   Scattered Clouds
9:37 AM 41.5 °F 39.6 °F 35.1 °F 78% 29.84 in 10.0 mi SSE 3.5 mph - N/A   Clear
9:55 AM 42.3 °F 40.5 °F 35.4 °F 77% 29.84 in 10.0 mi SSE 3.5 mph - N/A   Clear
10:15 AM 44.2 °F 41.8 °F 36.1 °F 73% 29.83 in 10.0 mi SSE 4.6 mph - N/A   Clear
10:35 AM 44.8 °F 42.4 °F 36.0 °F 71% 29.83 in 10.0 mi South 4.6 mph - N/A   Clear
10:59 AM 45.7 °F 43.4 °F 36.0 °F 69% 29.83 in 10.0 mi SSE 4.6 mph - N/A   Clear
11:17 AM 46.8 °F - 36.0 °F 66% 29.83 in 10.0 mi SSE 4.6 mph - N/A   Clear
11:35 AM 48.2 °F - 36.3 °F 63% 29.83 in 10.0 mi Calm Calm - N/A   Clear
11:56 AM 48.4 °F - 36.3 °F 63% 29.82 in 10.0 mi South 4.6 mph - N/A   Clear
12:15 PM 49.6 °F - 36.3 °F 60% 29.82 in 10.0 mi Calm Calm - N/A   Clear
12:39 PM 50.5 °F - 36.7 °F 59% 29.81 in 10.0 mi West 3.5 mph - N/A   Clear
12:57 PM 51.1 °F - 36.7 °F 58% 29.81 in 10.0 mi Calm Calm - N/A   Clear
1:15 PM 51.3 °F - 36.7 °F 57% 29.81 in 10.0 mi Calm Calm - N/A   Clear
1:35 PM 52.5 °F - 37.4 °F 56% 29.81 in 10.0 mi West 8.1 mph - N/A   Clear
2:19 PM 51.1 °F - 37.6 °F 60% 29.81 in 10.0 mi WNW 4.6 mph - N/A   Mostly Cloudy
2:37 PM 51.6 °F - 37.8 °F 59% 29.81 in 10.0 mi WSW 5.8 mph - N/A   Overcast
2:55 PM 51.4 °F - 37.8 °F 60% 29.81 in 10.0 mi West 5.8 mph - N/A   Overcast
3:15 PM 51.1 °F - 37.6 °F 60% 29.81 in 10.0 mi WSW 4.6 mph - N/A   Overcast
3:36 PM 51.1 °F - 37.6 °F 60% 29.82 in 10.0 mi WSW 3.5 mph - N/A   Overcast
3:59 PM 50.7 °F - 38.5 °F 63% 29.83 in 10.0 mi WSW 3.5 mph - N/A Rain Rain
4:17 PM 50.2 °F - 38.8 °F 65% 29.83 in 10.0 mi Calm Calm - N/A   Light Drizzle
4:35 PM 50.0 °F - 39.7 °F 68% 29.84 in 10.0 mi SW 8.1 mph - N/A Rain Light Rain
4:55 PM 46.4 °F 42.4 °F 43.2 °F 88% 29.86 in 7.0 mi WSW 8.1 mph - N/A Rain Light Rain
5:15 PM 45.9 °F 42.9 °F 43.0 °F 90% 29.87 in 10.0 mi WSW 5.8 mph - N/A Rain Rain
5:39 PM 45.5 °F 42.5 °F 43.3 °F 92% 29.87 in 10.0 mi WSW 5.8 mph - N/A   Overcast
5:57 PM 45.5 °F 44.2 °F 43.7 °F 93% 29.88 in 10.0 mi WSW 3.5 mph - N/A   Overcast
6:15 PM 45.1 °F 42.8 °F 42.8 °F 91% 29.89 in 10.0 mi SW 4.6 mph - N/A   Overcast
6:55 PM 44.6 °F - 42.6 °F 93% 29.91 in 10.0 mi Calm Calm - N/A   Overcast
7:19 PM 44.6 °F - 42.8 °F 93% 29.91 in 10.0 mi Calm Calm - N/A   Overcast
7:37 PM 44.6 °F - 43.2 °F 95% 29.92 in 10.0 mi Calm Calm - N/A   Overcast
8:15 PM 44.6 °F - 42.8 °F 93% 29.93 in 10.0 mi Calm Calm - N/A   Overcast
8:35 PM 44.6 °F 42.2 °F 42.6 °F 93% 29.93 in 10.0 mi WSW 4.6 mph - N/A   Overcast
8:58 PM 44.6 °F 42.2 °F 42.6 °F 93% 29.94 in 10.0 mi WSW 4.6 mph - N/A   Overcast
9:17 PM 44.2 °F 42.7 °F 42.8 °F 95% 29.95 in 7.0 mi West 3.5 mph - N/A   Overcast
9:35 PM 44.2 °F 42.7 °F 42.8 °F 95% 29.96 in 7.0 mi West 3.5 mph - N/A   Overcast
9:55 PM 44.1 °F 42.5 °F 42.8 °F 95% 29.96 in 7.0 mi WSW 3.5 mph - N/A   Overcast
10:15 PM 44.1 °F - 42.8 °F 95% 29.96 in 7.0 mi Calm Calm - N/A   Overcast
10:38 PM 43.7 °F - 42.8 °F 97% 29.96 in 7.0 mi Calm Calm - N/A   Overcast
10:56 PM 43.2 °F - 42.6 °F 98% 29.94 in 5.0 mi Calm Calm - N/A   Overcast
11:15 PM 43.0 °F - 42.6 °F 99% 29.96 in 4.0 mi Calm Calm - N/A   Overcast
11:35 PM 43.3 °F 41.7 °F 42.8 °F 98% 29.96 in 5.0 mi WSW 3.5 mph - N/A   Overcast
11:55 PM 43.9 °F 41.3 °F 43.0 °F 97% 29.97 in 7.0 mi West 4.6 mph - N/A   Overcast